Погода в Новом Уренгое

Россия / Ямало-Ненецкий автономный округ     66°05′02″N   76°40′51″E
темп.,
°C
ветер,
м/с
пор.,
м/с
влажн.,
%
обл.,
%
осадки,
мм/ч
давл.,
гПа
погр.,
м
17 августа, ср
ср1723:00+8сз81283100 0.0 1010590
02:00+7сз81386100 0.0 1010663
05:00+6сз81286100 0.0 1010673
08:00+6сз71090100 0.2 1009506
11:00+6ссз6790100 0.3 1010426
14:00+8ссз458899 0.0 1011467
17:00+10с4687100 0.0 1013459
20:00+10сз479390 0.0 1013228
18 августа, чт
чт1823:00+10сз51092100 0.0 1014334
02:00+8с511935 0.0 1015240
05:00+8с611925 0.0 1017236
08:00+12с79725 0.0 1018400
11:00+16с79565 0.0 1019826
14:00+17с8949100 0.0 10191152
17:00+15с8105195 0.0 10201040
20:00+11с7135495 0.0 1021526
19 августа, пт
пт1923:00+9с6126241 0.0 1021351
02:00+7с5117399 0.0 1021277
05:00+7с5975100 0.0 1021308
08:00+10с576231 0.0 1021548
11:00+13ссз564878 0.0 1020825
14:00+15сз454778 0.0 1019955
17:00+13зсз566876 0.0 1018511
20:00+13зюз51077100 0.4 1016368
20 августа, сб
сб2023:00+13з51278100 0.9 1014330
02:00+12зсз5985100 0.4 1012232
05:00+10сз71294100 0.6 1012529
08:00+9сз91385100 0.0 1012583
11:00+8ссз81187100 0.0 1013582
14:00+8ссз81188100 0.0 1014603
17:00+7ссз71188100 0.0 1014552
20:00+7ссз6990100 0.0 1016435
21 августа, вс
вс2123:00+8с5996100 0.8 1017304
02:00+8с6109411 0.1 1018274
05:00+7с6108999 0.1 1020310
08:00+8с61088100 0.0 1022375
11:00+9с7882100 0.0 1023523
14:00+11с687084 0.0 1024909
17:00+11ссв687077 0.0 10251029
20:00+9с48753 0.0 1026161